Miscellaneous Local Product
Issued by NWS Hastings, NE

Home | Current Version | Previous Version | Text Only | Print | Product List | Glossary Off
Versions: 1 2 3 4 5 6 7 8 9 10 11 12 13 14 15 16 17 18 19 20 21 22 23 24 25 26 27 28 29 30 31 32 33 34 35 36 37 38 39 40 41 42 43 44 45 46 47 48 49 50

000
AXUS43 KGID 220902
MISGRI

GID CWA HOURLY WEATHER ROUNDUP
NATIONAL WEATHER SERVICE HASTINGS NE
400 AM CDT TUE APR 22 2014

NOTE: "FAIR" INDICATES FEW OR NO CLOUDS BELOW 12,000 FEET WITH NO
SIGNIFICANT WEATHER AND/OR OBSTRUCTIONS TO VISIBILITY.

...SOUTH CENTRAL NEBRASKA...

CITY           SKY/WX    TMP DP  RH WIND       PRES   REMARKS
GRAND ISLAND   CLEAR     43  30  60 CALM      30.16S
HASTINGS       CLEAR     47  29  49 E3        30.14F
KEARNEY        CLEAR     46  30  53 S3        30.16S
ORD            CLEAR     33  26  75 SW3       30.14F
YORK           CLEAR     37  28  70 NE3       30.15S
AURORA         CLEAR     43  30  60 CALM      30.15S
LEXINGTON      CLEAR     41  32  70 CALM      30.15F
HOLDREGE       CLEAR     40  30  66 SE8       30.15F
HEBRON         CLEAR     44  31  60 CALM      30.14F

...NEBRASKA PANHANDLE...

CITY           SKY/WX    TMP DP  RH WIND       PRES   REMARKS
CHADRON        CLEAR     54  27  35 S32G40    29.96F
ALLIANCE       CLEAR     45  28  51 SE15      30.06F
SCOTTSBLUFF    CLEAR     46  27  47 E15       30.03F
SIDNEY         PTCLDY    50  31  48 S15       30.08F

...WESTERN AND NORTH CENTRAL NEBRASKA...

CITY           SKY/WX    TMP DP  RH WIND       PRES   REMARKS
VALENTINE      CLEAR     44  29  55 S6        30.12F
AINSWORTH      CLEAR     40  31  69 S8        30.12F WCI  35
ONEILL         CLEAR     42  29  59 S5        30.14F
BROKEN BOW     CLEAR     34  28  79 CALM      30.14F
IMPERIAL       PTCLDY    45  28  51 S8        30.14S
NORTH PLATTE   CLEAR     36  28  73 E8        30.14F WCI  30
MCCOOK         PTCLDY    47  30  51 SE7       30.15F

...EASTERN NEBRASKA...

CITY           SKY/WX    TMP DP  RH WIND       PRES   REMARKS
NORFOLK        CLEAR     41  31  67 E3        30.15F
SO SIOUX CITY  CLEAR     39  29  67 CALM      30.17S
TEKAMAH        CLEAR     40  29  64 NW7       30.17R
COLUMBUS       CLEAR     41  28  60 E3        30.17S
ALBION         CLEAR     37  30  76 CALM      30.16S
OMAHA EPPLEY   CLEAR     42  33  70 N8        30.17R
OFFUTT AFB     CLEAR     49  33  53 N8        30.16R
MILLARD        CLEAR     49  32  51 CALM      30.16R
LINCOLN        CLEAR     41  32  70 N10       30.16F
NEBRASKA CITY  CLEAR     47  34  60 N9        30.14S
BEATRICE       CLEAR     44  31  59 NE5       30.14F
FALLS CITY     CLEAR     47  35  63 NW6       30.13S

...NORTHERN KANSAS...

CITY           SKY/WX    TMP DP  RH WIND       PRES   REMARKS
GOODLAND       PTCLDY    43  32  65 S12       30.15F
HILL CITY      FAIR      41  36  82 CALM      30.16F
PHILLIPSBURG   CLEAR     45  32  61 CALM      30.17R
SMITH CENTER   CLEAR     45  30  57 E12       30.15F
BELOIT         CLEAR     41  34  75 CALM      30.15R
HAYS           CLEAR     45  30  57 E7        30.16S
RUSSELL        CLEAR     43  30  60 E8        30.14F
CONCORDIA      CLEAR     45  29  53 SE5       30.15S
SALINA         CLEAR     47  28  47 N3        30.15S
TOPEKA         CLEAR     51  35  54 N7        30.13R



USA.gov is the U.S. government's official web portal to all federal, state and local government web resources and services.